星链-35000 (STARLINK-35000)

导读

STARLINK-35000是美国于2025年8月22日发射的星链系列卫星,归属SpaceX公司星链星座组网项目。星链计划旨在构建全球卫星互联网,为全球范围用户提供低时延、高速的宽带网络服务,该卫星发射后将进一步扩充星链星座卫星规模,增强其全球覆盖能力与服务稳定性。

基本信息
目录编号:
65278
目录名称:
STARLINK-35000
国际标识:
2025-184F
轨道中心:
EARTH
卫星名称:
星链-35000
卫星全名:
星链-35000 (STARLINK-35000)
卫星状态:
在轨 (已飞行295 天)
发射日期:
2025-08-22 UTC
国别 :
美国 (US)
星等 :
--
轨道信息
数据来源 国际轨道数据 AOE轨道数据
星历时间 2026-06-13T10:22:24+0800
13小时前
查看轨道信息
2026-06-09T00:00:00+0800
5天前
查看轨道信息
半长轴 6927.613km 6927.585km
偏心率 0.0001289 0.0001177
轨道倾角 97.365° 97.388°
近地点辐角 127.069° 128.119°
升交点赤经 215.800° 211.567°
平近点角 233.066° 343.004°
近地点 548.583km 548.632km
远地点 550.369km 550.264km
周期 95.639分钟 95.638分钟
每日圈数 15.056617 15.056709
详细信息
固有亮度:
5
最大亮度:
2.5
卫星平台:
Starlink V1.0
覆盖范围:
全球
运营商:
太空探索技术公司
运营商所在国:
美国
制造商(研发单位):
太空探索技术公司
制造商所在国:
美国
使用方式:
暂无
卫星简介
Starlink 计划是 SpaceX 推出的全球卫星互联网项目,通过发射低轨道卫星,为全球尤其是偏远地区提供高速、低延迟的互联网服务。自 2019 年起,Starlink 已部署数千颗卫星,旨在缩小全球数字鸿沟,推动互联网普及。该项目还为军事、航空等行业提供通信支持,带来广泛经济效益。
2D轨道图
3D轨道图
轨道高度分析图
轨道倾角分析图
轨道综合分析图
查看轨道综合分析图